Fowler, IL

6:11 PM CST on February 08, 2016 (GMT -0600)
Quincy Regional-Baldwin

Weather History for KUIN - September, 2013

Change the Weather History Date:

Monday, September 16, 2013

  Actual Average Record
Temperature  
Mean Temperature 63 °F 66 °F  
Max Temperature 71 °F 77 °F 99 °F (1927)
Min Temperature 54 °F 56 °F 41 °F (1984)
Degree Days  
Heating Degree Days 2 2  
Month to date heating degree days 7 20  
Since 1 July heating degree days 13 25  
Cooling Degree Days 0 4  
Month to date cooling degree days 147 88  
Year to date cooling degree days 1153 1041  
Growing Degree Days 12 (Base 50)    
Moisture  
Dew Point 53 °F    
Average Humidity 73    
Maximum Humidity 93    
Minimum Humidity 53    
Precipitation  
Precipitation 0.00 in 0.10 in 2.95 in (1978)
Month to date precipitation 0.85 1.75  
Year to date precipitation 28.95 27.50  
Sea Level Pressure  
Sea Level Pressure 30.25 in    
Wind  
Wind Speed 8 mph (ENE)    
Max Wind Speed 17 mph    
Max Gust Speed 22 mph    
Visibility 10 miles    
Events      
T = Trace of Precipitation, MM = Missing Value Source: NWS Daily Summary

Daily Weather History Graph

Daily Weather History Graph

Search for Another Location

Airport or City:

Trip Planner

Search our weather history database for the weather conditions in past years. The results will help you decide how hot, cold, wet, or windy it might be!

Date:

Astronomy

Sep. 16, 2013 Rise Set
Actual Time 6:46 AM CDT 7:11 PM CDT
Civil Twilight 6:19 AM CDT 7:38 PM CDT
Nautical Twilight 5:47 AM CDT 8:10 PM CDT
Astronomical Twilight 5:15 AM CDT 8:42 PM CDT
Moon 5:20 PM CDT (9/16) 3:33 AM CDT (9/16)
Length of Visible Light 13h 18m
Length of Day
12h 24m
Waxing Gibbous, 90% of the Moon is Illuminated
Sep 16
Waxing Gibbous
Sep 19
Full
Sep 26
Last Quarter
Oct 4
New
Oct 11
First Quarter

Hourly Weather History & Observations

Time (CDT) Temp. Dew Point Humidity Pressure Visibility Wind Dir Wind Speed Gust Speed Precip Events Conditions
12:21 AM 60.8 °F 53.6 °F 77% 30.18 in 10.0 mi NNE 16.1 mph - N/A   Overcast
12:54 AM 59.0 °F 54.0 °F 83% 30.17 in 10.0 mi NNE 9.2 mph - N/A   Mostly Cloudy
1:54 AM 57.0 °F 53.1 °F 87% 30.18 in 10.0 mi NE 10.4 mph - N/A   Clear
2:54 AM 55.0 °F 52.0 °F 89% 30.18 in 10.0 mi NNE 8.1 mph - N/A   Clear
3:33 AM 55.4 °F 53.6 °F 94% 30.19 in 10.0 mi NE 9.2 mph - N/A   Mostly Cloudy
3:50 AM 57.2 °F 53.6 °F 88% 30.20 in 10.0 mi NE 11.5 mph - N/A   Overcast
3:54 AM 57.0 °F 53.1 °F 87% 30.19 in 10.0 mi NE 10.4 mph - N/A   Overcast
4:54 AM 57.9 °F 53.1 °F 84% 30.22 in 10.0 mi ENE 11.5 mph - N/A   Overcast
5:54 AM 57.9 °F 54.0 °F 87% 30.23 in 10.0 mi NNE 5.8 mph - N/A   Overcast
6:54 AM 57.0 °F 54.0 °F 89% 30.25 in 10.0 mi NE 8.1 mph - N/A   Overcast
7:54 AM 57.9 °F 55.0 °F 90% 30.26 in 9.0 mi NE 10.4 mph - N/A   Overcast
8:27 AM 59.0 °F 55.4 °F 88% 30.27 in 10.0 mi ENE 10.4 mph - N/A   Overcast
8:54 AM 59.0 °F 55.0 °F 87% 30.28 in 10.0 mi ENE 10.4 mph - N/A   Overcast
9:54 AM 61.0 °F 55.0 °F 81% 30.30 in 10.0 mi ENE 9.2 mph 19.6 mph N/A   Overcast
10:11 AM 60.8 °F 53.6 °F 77% 30.31 in 10.0 mi East 10.4 mph - N/A   Overcast
10:54 AM 62.1 °F 55.0 °F 78% 30.32 in 10.0 mi ENE 9.2 mph - N/A   Overcast
11:54 AM 62.1 °F 55.0 °F 78% 30.32 in 10.0 mi ENE 9.2 mph - N/A   Overcast
12:54 PM 64.9 °F 55.0 °F 70% 30.32 in 10.0 mi NE 8.1 mph - N/A   Overcast
1:24 PM 66.2 °F 53.6 °F 64% 30.31 in 10.0 mi East 5.8 mph - N/A   Mostly Cloudy
1:35 PM 66.2 °F 53.6 °F 64% 30.31 in 10.0 mi East 6.9 mph 16.1 mph N/A   Mostly Cloudy
1:54 PM 68.0 °F 54.0 °F 61% 30.29 in 10.0 mi NNE 13.8 mph 18.4 mph N/A   Mostly Cloudy
2:02 PM 68.0 °F 53.6 °F 60% 30.29 in 10.0 mi NE 13.8 mph - N/A   Scattered Clouds
2:54 PM 69.1 °F 51.1 °F 53% 30.27 in 10.0 mi ESE 15.0 mph 19.6 mph N/A   Mostly Cloudy
3:54 PM 69.1 °F 51.1 °F 53% 30.26 in 10.0 mi ENE 11.5 mph - N/A   Overcast
4:54 PM 69.1 °F 51.1 °F 53% 30.25 in 10.0 mi ENE 11.5 mph - N/A   Mostly Cloudy
5:54 PM 68.0 °F 50.0 °F 52% 30.24 in 10.0 mi ESE 6.9 mph - N/A   Partly Cloudy
6:54 PM 64.9 °F 51.1 °F 61% 30.23 in 10.0 mi ENE 6.9 mph - N/A   Mostly Cloudy
7:54 PM 61.0 °F 51.1 °F 70% 30.23 in 10.0 mi ENE 3.5 mph - N/A   Clear
8:54 PM 59.0 °F 51.1 °F 75% 30.23 in 10.0 mi NE 3.5 mph - N/A   Clear
9:54 PM 60.1 °F 51.1 °F 72% 30.24 in 10.0 mi East 3.5 mph - N/A   Clear
10:54 PM 57.9 °F 51.1 °F 78% 30.26 in 10.0 mi East 5.8 mph - N/A   Clear
11:54 PM 57.0 °F 51.1 °F 81% 30.26 in 10.0 mi East 3.5 mph - N/A   Clear